Time,TemperatureF,DewpointF,PressureIn,WindDirection,WindDirectionDegrees,WindSpeedMPH,WindSpeedGustMPH,Humidity,HourlyPrecipIn,Conditions,Clouds,dailyrainin,SoftwareType,DateUTC
2013-01-03 00:02:00,23.0,14.0,29.87,WNW,282,2.0,7.0,67,0.00,,,0.00,,2013-01-03 06:02:00,
2013-01-03 00:12:00,23.0,14.0,29.87,WNW,282,2.0,7.0,67,0.00,,,0.00,,2013-01-03 06:12:00,
2013-01-03 00:22:00,22.0,13.0,29.87,WNW,288,2.0,3.0,67,0.00,,,0.00,,2013-01-03 06:22:00,
2013-01-03 00:32:00,22.0,13.0,29.87,NW,308,2.0,5.0,68,0.00,,,0.00,,2013-01-03 06:32:00,
2013-01-03 00:42:00,22.0,13.0,29.87,NW,308,2.0,5.0,68,0.00,,,0.00,,2013-01-03 06:42:00,
2013-01-03 00:52:00,22.0,13.0,29.87,NW,313,4.0,8.0,68,0.00,,,0.00,,2013-01-03 06:52:00,
2013-01-03 01:02:00,22.0,12.0,29.87,NW,314,7.0,13.0,66,0.00,,,0.00,,2013-01-03 07:02:00,
2013-01-03 01:12:00,22.0,12.0,29.87,NW,314,7.0,13.0,66,0.00,,,0.00,,2013-01-03 07:12:00,
2013-01-03 01:22:00,22.0,12.0,29.87,WNW,303,5.0,12.0,65,0.00,,,0.00,,2013-01-03 07:22:00,
2013-01-03 01:32:00,22.0,12.0,29.86,WNW,301,6.0,11.0,66,0.00,,,0.00,,2013-01-03 07:32:00,
2013-01-03 01:42:00,22.0,12.0,29.86,WNW,301,6.0,11.0,66,0.00,,,0.00,,2013-01-03 07:42:00,
2013-01-03 01:52:00,21.0,12.0,29.86,WNW,302,4.0,8.0,67,0.00,,,0.00,,2013-01-03 07:52:00,
2013-01-03 02:02:00,21.0,12.0,29.86,WNW,303,5.0,8.0,67,0.00,,,0.00,,2013-01-03 08:02:00,
2013-01-03 02:12:00,21.0,12.0,29.86,WNW,303,5.0,8.0,67,0.00,,,0.00,,2013-01-03 08:12:00,
2013-01-03 02:22:00,21.0,11.0,29.86,NW,304,4.0,9.0,66,0.00,,,0.00,,2013-01-03 08:22:00,
2013-01-03 02:32:00,21.0,11.0,29.86,NW,305,5.0,11.0,66,0.00,,,0.00,,2013-01-03 08:32:00,
2013-01-03 02:42:00,21.0,11.0,29.86,NW,305,5.0,11.0,66,0.00,,,0.00,,2013-01-03 08:42:00,
2013-01-03 02:53:00,20.0,11.0,29.86,NW,304,4.0,7.0,67,0.00,,,0.00,,2013-01-03 08:53:00,
2013-01-03 03:02:00,20.0,11.0,29.86,WNW,294,4.0,8.0,68,0.00,,,0.00,,2013-01-03 09:02:00,
2013-01-03 03:12:00,20.0,11.0,29.86,WNW,294,4.0,8.0,68,0.00,,,0.00,,2013-01-03 09:12:00,
2013-01-03 03:22:00,20.0,11.0,29.85,WNW,296,3.0,7.0,68,0.00,,,0.00,,2013-01-03 09:22:00,
2013-01-03 03:33:00,20.0,11.0,29.85,WNW,282,5.0,8.0,69,0.00,,,0.00,,2013-01-03 09:33:00,
2013-01-03 03:43:00,20.0,11.0,29.85,WNW,282,5.0,8.0,69,0.00,,,0.00,,2013-01-03 09:43:00,
2013-01-03 03:53:00,19.0,11.0,29.85,West,275,3.0,7.0,70,0.00,,,0.00,,2013-01-03 09:53:00,
2013-01-03 04:02:00,19.0,11.0,29.85,WNW,283,4.0,8.0,71,0.00,,,0.00,,2013-01-03 10:02:00,
2013-01-03 04:12:00,19.0,11.0,29.85,WNW,283,4.0,8.0,71,0.00,,,0.00,,2013-01-03 10:12:00,
2013-01-03 04:22:00,19.0,11.0,29.85,West,279,4.0,7.0,70,0.00,,,0.00,,2013-01-03 10:22:00,
2013-01-03 04:32:00,19.0,11.0,29.85,NW,308,3.0,6.0,70,0.00,,,0.00,,2013-01-03 10:32:00,
2013-01-03 04:42:00,19.0,11.0,29.85,NW,308,3.0,6.0,70,0.00,,,0.00,,2013-01-03 10:42:00,
2013-01-03 04:52:00,20.0,11.0,29.85,WNW,297,4.0,8.0,69,0.00,,,0.00,,2013-01-03 10:52:00,
2013-01-03 05:02:00,20.0,12.0,29.85,NW,316,3.0,8.0,70,0.00,,,0.00,,2013-01-03 11:02:00,
2013-01-03 05:12:00,20.0,12.0,29.85,NW,316,3.0,8.0,70,0.00,,,0.00,,2013-01-03 11:12:00,
2013-01-03 05:22:00,20.0,12.0,29.85,NW,307,4.0,8.0,71,0.00,,,0.00,,2013-01-03 11:22:00,
2013-01-03 05:33:00,20.0,12.0,29.85,WNW,303,5.0,10.0,71,0.00,,,0.00,,2013-01-03 11:33:00,
2013-01-03 05:42:00,20.0,12.0,29.85,WNW,303,5.0,10.0,71,0.00,,,0.00,,2013-01-03 11:42:00,
2013-01-03 05:53:00,21.0,13.0,29.86,NW,311,5.0,11.0,71,0.00,,,0.00,,2013-01-03 11:53:00,
2013-01-03 06:02:00,21.0,13.0,29.87,NW,313,7.0,11.0,71,0.00,,,0.00,,2013-01-03 12:02:00,
2013-01-03 06:12:00,21.0,13.0,29.87,NW,313,7.0,11.0,71,0.00,,,0.00,,2013-01-03 12:12:00,
2013-01-03 06:22:00,21.0,13.0,29.87,NW,306,6.0,10.0,72,0.00,,,0.00,,2013-01-03 12:22:00,
2013-01-03 06:32:00,21.0,13.0,29.87,NW,314,6.0,12.0,72,0.00,,,0.00,,2013-01-03 12:32:00,
2013-01-03 06:42:00,21.0,13.0,29.87,NW,314,6.0,12.0,72,0.00,,,0.00,,2013-01-03 12:42:00,
2013-01-03 06:53:00,21.0,13.0,29.87,NW,314,5.0,12.0,72,0.00,,,0.00,,2013-01-03 12:53:00,
2013-01-03 07:02:00,22.0,14.0,29.88,NW,316,6.0,12.0,71,0.00,,,0.00,,2013-01-03 13:02:00,
2013-01-03 07:12:00,22.0,14.0,29.88,NW,316,6.0,12.0,71,0.00,,,0.00,,2013-01-03 13:12:00,
2013-01-03 07:22:00,22.0,14.0,29.88,NW,324,8.0,17.0,70,0.00,,,0.00,,2013-01-03 13:22:00,
2013-01-03 07:32:00,22.0,13.0,29.88,NNW,327,9.0,13.0,69,0.00,,,0.00,,2013-01-03 13:32:00,
2013-01-03 07:42:00,22.0,13.0,29.88,NNW,327,9.0,13.0,69,0.00,,,0.00,,2013-01-03 13:42:00,
2013-01-03 07:52:00,21.0,13.0,29.88,NNW,327,9.0,15.0,70,0.00,,,0.00,,2013-01-03 13:52:00,
2013-01-03 08:03:00,21.0,13.0,29.88,NNW,327,9.0,18.0,70,0.00,,,0.00,,2013-01-03 14:03:00,
2013-01-03 08:12:00,21.0,13.0,29.88,NNW,327,9.0,18.0,70,0.00,,,0.00,,2013-01-03 14:12:00,
2013-01-03 08:22:00,21.0,13.0,29.89,NW,323,8.0,14.0,71,0.00,,,0.00,,2013-01-03 14:22:00,
2013-01-03 08:33:00,22.0,14.0,29.90,NW,318,6.0,14.0,72,0.00,,,0.00,,2013-01-03 14:33:00,
2013-01-03 08:42:00,22.0,14.0,29.90,NW,318,6.0,14.0,72,0.00,,,0.00,,2013-01-03 14:42:00,
2013-01-03 08:53:00,22.0,14.0,29.90,NW,321,7.0,12.0,72,0.00,,,0.00,,2013-01-03 14:53:00,
2013-01-03 09:03:00,22.0,15.0,29.91,NW,321,6.0,12.0,74,0.00,,,0.00,,2013-01-03 15:03:00,
2013-01-03 09:12:00,22.0,15.0,29.91,NW,315,7.0,12.0,74,0.00,,,0.00,,2013-01-03 15:12:00,
2013-01-03 09:22:00,22.0,15.0,29.91,NW,315,7.0,12.0,74,0.00,,,0.00,,2013-01-03 15:22:00,
2013-01-03 09:33:00,22.0,15.0,29.91,NW,307,7.0,13.0,73,0.00,,,0.00,,2013-01-03 15:33:00,
2013-01-03 09:43:00,22.0,15.0,29.91,NW,307,7.0,13.0,73,0.00,,,0.00,,2013-01-03 15:43:00,
2013-01-03 09:53:00,22.0,15.0,29.91,WNW,302,7.0,12.0,73,0.00,,,0.00,,2013-01-03 15:53:00,
2013-01-03 10:03:00,22.0,15.0,29.92,WNW,302,8.0,13.0,73,0.00,,,0.00,,2013-01-03 16:03:00,
2013-01-03 10:12:00,22.0,15.0,29.92,WNW,302,8.0,13.0,73,0.00,,,0.00,,2013-01-03 16:12:00,
2013-01-03 10:22:00,22.0,15.0,29.92,NW,305,7.0,13.0,73,0.00,,,0.00,,2013-01-03 16:22:00,
2013-01-03 10:33:00,23.0,16.0,29.93,WNW,302,6.0,12.0,73,0.00,,,0.00,,2013-01-03 16:33:00,
2013-01-03 10:43:00,23.0,16.0,29.93,WNW,302,6.0,12.0,73,0.00,,,0.00,,2013-01-03 16:43:00,
2013-01-03 10:52:00,23.0,16.0,29.93,NW,307,7.0,17.0,73,0.00,,,0.00,,2013-01-03 16:52:00,
2013-01-03 11:03:00,23.0,16.0,29.93,NW,308,7.0,13.0,74,0.00,,,0.00,,2013-01-03 17:03:00,
2013-01-03 11:12:00,23.0,16.0,29.93,NW,308,7.0,13.0,74,0.00,,,0.00,,2013-01-03 17:12:00,
2013-01-03 11:23:00,24.0,17.0,29.93,NW,305,6.0,11.0,74,0.00,,,0.00,,2013-01-03 17:23:00,
2013-01-03 11:33:00,24.0,17.0,29.92,NW,309,7.0,12.0,74,0.00,,,0.00,,2013-01-03 17:33:00,
2013-01-03 11:42:00,24.0,17.0,29.92,NW,309,7.0,12.0,74,0.00,,,0.00,,2013-01-03 17:42:00,
2013-01-03 11:53:00,24.0,17.0,29.92,NW,318,7.0,12.0,74,0.00,,,0.00,,2013-01-03 17:53:00,
2013-01-03 12:03:00,24.0,17.0,29.92,NW,305,6.0,12.0,75,0.00,,,0.00,,2013-01-03 18:03:00,
2013-01-03 12:13:00,24.0,17.0,29.92,NW,305,6.0,12.0,75,0.00,,,0.00,,2013-01-03 18:13:00,
2013-01-03 12:22:00,24.0,17.0,29.92,NW,306,5.0,8.0,75,0.00,,,0.00,,2013-01-03 18:22:00,
2013-01-03 12:33:00,24.0,17.0,29.92,NW,309,6.0,10.0,74,0.00,,,0.00,,2013-01-03 18:33:00,
2013-01-03 12:42:00,24.0,17.0,29.92,NW,309,6.0,10.0,74,0.00,,,0.00,,2013-01-03 18:42:00,
2013-01-03 12:53:00,24.0,17.0,29.91,NW,316,4.0,8.0,74,0.00,,,0.00,,2013-01-03 18:53:00,
2013-01-03 13:03:00,25.0,18.0,29.91,NW,314,5.0,10.0,74,0.00,,,0.00,,2013-01-03 19:03:00,
2013-01-03 13:12:00,25.0,18.0,29.91,NW,314,5.0,10.0,74,0.00,,,0.00,,2013-01-03 19:12:00,
2013-01-03 13:55:00,26.0,18.0,29.91,WNW,302,5.0,9.0,72,0.00,,,0.00,,2013-01-03 19:55:00,
2013-01-03 14:03:00,26.0,18.0,29.91,WNW,283,9.0,16.0,71,0.00,,,0.00,,2013-01-03 20:03:00,
2013-01-03 14:12:00,26.0,18.0,29.91,WNW,283,9.0,16.0,71,0.00,,,0.00,,2013-01-03 20:12:00,
2013-01-03 14:22:00,25.0,17.0,29.91,WNW,285,8.0,14.0,71,0.00,,,0.00,,2013-01-03 20:22:00,
2013-01-03 14:33:00,25.0,17.0,29.92,West,279,7.0,14.0,72,0.00,,,0.00,,2013-01-03 20:33:00,
2013-01-03 14:42:00,25.0,17.0,29.92,West,279,7.0,14.0,72,0.00,,,0.00,,2013-01-03 20:42:00,
2013-01-03 14:53:00,25.0,17.0,29.92,West,280,8.0,16.0,71,0.00,,,0.00,,2013-01-03 20:53:00,
2013-01-03 15:02:00,25.0,17.0,29.93,West,276,8.0,14.0,72,0.00,,,0.00,,2013-01-03 21:02:00,
2013-01-03 15:12:00,25.0,17.0,29.93,West,276,8.0,14.0,72,0.00,,,0.00,,2013-01-03 21:12:00,
2013-01-03 15:22:00,25.0,18.0,29.93,West,271,7.0,14.0,73,0.00,,,0.00,,2013-01-03 21:22:00,
2013-01-03 15:36:00,25.0,18.0,29.93,West,270,6.0,13.0,74,0.00,,,0.00,,2013-01-03 21:36:00,
2013-01-03 15:41:00,25.0,18.0,29.93,West,267,8.0,16.0,74,0.00,,,0.00,,2013-01-03 21:41:00,
2013-01-03 15:47:00,25.0,18.0,29.93,West,270,6.0,13.0,74,0.00,,,0.00,,2013-01-03 21:47:00,
2013-01-03 15:53:00,25.0,18.0,29.93,West,272,6.0,11.0,74,0.00,,,0.00,,2013-01-03 21:53:00,
2013-01-03 16:02:00,25.0,18.0,29.93,West,267,8.0,16.0,74,0.00,,,0.00,,2013-01-03 22:02:00,
2013-01-03 16:12:00,25.0,18.0,29.93,West,267,8.0,16.0,74,0.00,,,0.00,,2013-01-03 22:12:00,
2013-01-03 16:22:00,25.0,18.0,29.93,West,267,8.0,16.0,74,0.00,,,0.00,,2013-01-03 22:22:00,
2013-01-03 16:32:00,25.0,18.0,29.93,West,267,8.0,16.0,74,0.00,,,0.00,,2013-01-03 22:32:00,
2013-01-03 17:03:00,26.0,18.0,29.94,WNW,294,8.0,16.0,71,0.00,,,0.00,,2013-01-03 23:03:00,
2013-01-03 17:12:00,26.0,18.0,29.94,WNW,294,8.0,16.0,71,0.00,,,0.00,,2013-01-03 23:12:00,
2013-01-03 17:22:00,26.0,17.0,29.94,WNW,295,9.0,17.0,69,0.00,,,0.00,,2013-01-03 23:22:00,
2013-01-03 17:33:00,26.0,18.0,29.94,WNW,297,7.0,16.0,70,0.00,,,0.00,,2013-01-03 23:33:00,
2013-01-03 17:42:00,26.0,18.0,29.94,WNW,297,7.0,16.0,70,0.00,,,0.00,,2013-01-03 23:42:00,
2013-01-03 17:52:00,25.0,17.0,29.95,WNW,286,11.0,22.0,70,0.00,,,0.00,,2013-01-03 23:52:00,
2013-01-03 18:03:00,25.0,17.0,29.95,WNW,284,10.0,20.0,71,0.00,,,0.00,,2013-01-04 00:03:00,
2013-01-03 18:12:00,25.0,17.0,29.95,WNW,284,10.0,20.0,71,0.00,,,0.00,,2013-01-04 00:12:00,
2013-01-03 18:22:00,24.0,16.0,29.95,West,280,11.0,18.0,70,0.00,,,0.00,,2013-01-04 00:22:00,
2013-01-03 18:32:00,24.0,16.0,29.95,WNW,296,8.0,18.0,71,0.00,,,0.00,,2013-01-04 00:32:00,
2013-01-03 18:42:00,24.0,16.0,29.95,WNW,296,8.0,18.0,71,0.00,,,0.00,,2013-01-04 00:42:00,
2013-01-03 18:53:00,24.0,16.0,29.95,WNW,291,11.0,20.0,71,0.00,,,0.00,,2013-01-04 00:53:00,
2013-01-03 19:02:00,24.0,16.0,29.95,WNW,299,8.0,17.0,72,0.00,,,0.00,,2013-01-04 01:02:00,
2013-01-03 19:12:00,24.0,16.0,29.95,WNW,299,8.0,17.0,72,0.00,,,0.00,,2013-01-04 01:12:00,
2013-01-03 19:22:00,23.0,15.0,29.95,WNW,297,10.0,17.0,72,0.00,,,0.00,,2013-01-04 01:22:00,
2013-01-03 19:32:00,23.0,16.0,29.95,WNW,284,8.0,13.0,73,0.00,,,0.00,,2013-01-04 01:32:00,
2013-01-03 19:42:00,23.0,16.0,29.95,WNW,284,8.0,13.0,73,0.00,,,0.00,,2013-01-04 01:42:00,
2013-01-03 19:52:00,23.0,16.0,29.93,WNW,287,9.0,17.0,73,0.00,,,0.00,,2013-01-04 01:52:00,
2013-01-03 20:02:00,23.0,16.0,29.94,WNW,293,9.0,18.0,74,0.00,,,0.00,,2013-01-04 02:02:00,
2013-01-03 20:12:00,23.0,16.0,29.94,WNW,293,9.0,18.0,74,0.00,,,0.00,,2013-01-04 02:12:00,
2013-01-03 20:22:00,22.0,15.0,29.94,WNW,288,11.0,24.0,74,0.00,,,0.00,,2013-01-04 02:22:00,
2013-01-03 20:32:00,22.0,15.0,29.93,WNW,284,9.0,21.0,75,0.00,,,0.00,,2013-01-04 02:32:00,
2013-01-03 20:42:00,22.0,15.0,29.93,WNW,284,9.0,21.0,75,0.00,,,0.00,,2013-01-04 02:42:00,
2013-01-03 20:52:00,22.0,16.0,29.92,WNW,282,8.0,16.0,76,0.00,,,0.00,,2013-01-04 02:52:00,
2013-01-03 21:02:00,22.0,16.0,29.92,WNW,282,8.0,16.0,76,0.00,,,0.00,,2013-01-04 03:02:00,
2013-01-03 21:12:00,22.0,16.0,29.92,WNW,282,8.0,16.0,76,0.00,,,0.00,,2013-01-04 03:12:00,
2013-01-03 21:22:00,22.0,16.0,29.92,WNW,282,8.0,16.0,76,0.00,,,0.00,,2013-01-04 03:22:00,
2013-01-03 21:32:00,22.0,16.0,29.92,WNW,282,8.0,16.0,76,0.00,,,0.00,,2013-01-04 03:32:00,